Voltar ao catálogo

STARLINK-31467

AtivoComunicaçõesVLEO
NORAD 59235·PAYLOAD·🇺🇸 United States

Lançado Mar 16, 2024 de Cape Canaveral Space Force Station

Loading…

Próximas Passagens (próximas 24 horas)

TLE

AtualizadoSource: CelesTrak SupGP

Época: Sep 14, 2026, 20:51 UTC

1 59235C 24049E   26257.86923611 -.00017879  00000+0 -64768-3 0  2575
2 59235  43.0019 155.1242 0001431 267.1077 285.9141 15.27581841    15

Acompanhe STARLINK-31467 em tempo real com AllMySat

Download on the App Store